[[{"header":{"parameterUnit":"m.s-1","parameterCategory":1,"la1":30.2991,"la2":30.254,"lo1":-89.0895,"lo2":-89.0444,"dy":0.0017,"dx":0.0017,"nx":28,"ny":28,"refTime":"2024-08-20T21:00:00:Z","depth":0,"parameterNumber":2,"parameterNumberName":"U-component_of_WINDS"},"data":[0,0,0,0,0,0,0,0,0,0,0,0,0,0,0,0,0,0,0,0,0,0,0,0,0,0,0,0,0,0,0,0,0,0,0,0,0,0,0,0,0,0,0,0,0,0,0,0,0,0,0,0,0,0,0,0,0,0,-1.2115,-1.2115,0,-1.2135,-1.2135,-1.2136,-1.2115,-1.2114,-1.2114,-1.2113,-1.2134,-1.2136,-1.2137,0,0,0,0,0,0,0,0,0,0,0,0,0,-1.2059,-1.206,-1.2115,-1.2115,-1.2115,-1.2135,-1.2135,-1.2136,-1.2115,-1.2114,-1.2113,-1.2112,-1.2134,-1.2135,-1.2137,0,0,0,0,0,0,0,0,0,0,0,0,0,-1.2082,-1.2061,-1.2115,-1.2108,-1.2107,-1.2135,-1.2135,-1.2136,-1.2115,-1.2114,-1.2113,-1.2112,-1.2133,-1.2135,-1.2137,-1.2174,0,0,-1.2143,-1.2144,0,0,0,0,0,0,0,0,-1.2081,-1.2084,-1.2108,-1.2108,-1.2108,-1.2121,-1.2124,-1.2148,-1.2116,-1.2112,-1.2113,-1.2111,-1.2131,-1.2133,-1.214,-1.2175,-1.2176,-1.2143,-1.2145,-1.2146,-1.2146,0,0,0,0,0,0,0,-1.2079,-1.2083,-1.2123,-1.2109,-1.2108,-1.2104,-1.2105,-1.2128,-1.2128,-1.2113,-1.2111,-1.2114,-1.2131,-1.2138,-1.214,-1.2176,-1.2143,-1.2145,-1.2146,-1.2147,-1.2242,-1.2243,0,0,0,0,0,0,-1.2078,-1.2082,-1.2122,-1.2124,-1.2091,-1.2106,-1.2108,-1.2118,-1.2128,-1.2128,-1.2115,-1.2113,-1.2135,-1.2138,-1.2141,-1.2184,-1.2145,-1.2147,-1.2148,-1.2241,-1.2242,-1.2244,0,0,0,0,0,0,-1.2077,-1.2082,-1.2121,-1.2102,-1.2107,-1.2108,-1.212,-1.2119,-1.2126,-1.213,-1.213,-1.2122,-1.2134,-1.2138,-1.2166,-1.2185,-1.2148,-1.215,-1.2239,-1.2241,-1.2243,-1.2272,0,0,0,0,0,0,-1.2076,-1.2082,-1.2095,-1.2103,-1.2108,-1.2146,-1.2121,-1.2121,-1.213,-1.2127,-1.2136,-1.2137,-1.2133,-1.2163,-1.2168,-1.2187,-1.2152,-1.2238,-1.224,-1.2243,-1.2269,-1.2275,-1.2279,0,0,0,0,0,-1.2074,-1.2103,-1.2096,-1.2101,-1.2125,-1.2147,-1.215,-1.2146,-1.2131,-1.2145,-1.2147,-1.2136,-1.2182,-1.2166,-1.2171,-1.2191,-1.2236,-1.2239,-1.2242,-1.2267,-1.2273,-1.2279,0,0,0,0,0,0,-1.2098,-1.2104,-1.2096,-1.2129,-1.2138,-1.2144,-1.2161,-1.2153,-1.2166,-1.2163,-1.2157,-1.2159,-1.2189,-1.2193,-1.2175,-1.2227,-1.2207,-1.2211,-1.2224,-1.223,-1.2235,-1.2234,-1.2153,0,0,0,0,0,-1.2107,-1.2124,-1.2128,-1.2156,-1.2161,-1.216,-1.217,-1.2165,-1.2174,-1.2178,-1.2182,-1.2192,-1.2208,-1.2219,-1.2234,-1.2269,-1.2271,-1.2286,-1.2291,-1.2295,-1.2299,-1.2318,-1.2325,-1.2254,-1.2254,-1.2254,0,0,-1.2126,-1.2131,-1.2142,-1.2161,-1.2168,-1.2186,-1.2164,-1.2184,-1.2197,-1.2181,-1.2208,-1.2211,-1.2221,-1.2253,-1.2267,-1.2257,-1.2319,-1.2299,-1.2302,-1.2304,-1.2322,-1.2329,-1.2335,-1.2256,-1.2255,-1.2255,0,0,-1.217,-1.2175,-1.2199,-1.2206,-1.2216,-1.2216,-1.2221,-1.2229,-1.223,-1.2257,-1.2245,-1.2261,-1.229,-1.2297,-1.2305,-1.2352,-1.2343,-1.2357,-1.2384,-1.2403,-1.2408,-1.2413,-1.2431,-1.2437,-1.2361,-1.2361,-1.2361,0,-1.2192,-1.2219,-1.2213,-1.2234,-1.2243,-1.2229,-1.2254,-1.2261,-1.2275,-1.2282,-1.227,-1.2305,-1.2311,-1.2345,-1.2356,-1.2363,-1.237,-1.2357,-1.2408,-1.2413,-1.2417,-1.2434,-1.244,-1.2363,-1.2363,-1.2362,-1.2362,0,-1.2247,-1.2265,-1.2284,-1.2298,-1.2309,-1.2332,-1.2329,-1.2341,-1.2336,-1.2336,-1.2364,-1.237,-1.2387,-1.2394,-1.2389,-1.2427,-1.2421,-1.2409,-1.2388,-1.2426,-1.2442,-1.2448,-1.2365,-1.2365,-1.2364,-1.2364,0,0,-1.2307,-1.2317,-1.2324,-1.2331,-1.2341,-1.2355,-1.2377,-1.2393,-1.2404,-1.2414,-1.2433,-1.2457,-1.2446,-1.2455,-1.2451,-1.2467,-1.2505,-1.2453,-1.2453,-1.2463,-1.2548,-1.2558,-1.2565,-1.2498,-1.25,-1.2501,-1.2548,0,-1.2352,-1.239,-1.2385,-1.2423,-1.244,-1.2427,-1.2446,-1.2455,-1.2456,-1.2471,-1.2473,-1.249,-1.2474,-1.2479,-1.2495,-1.2497,-1.2522,-1.2493,-1.2517,-1.2518,-1.2515,-1.2573,-1.2584,-1.2628,-1.2554,-1.2555,-1.2555,0,-1.2409,-1.2422,-1.2461,-1.2468,-1.2475,-1.2493,-1.2507,-1.2522,-1.2531,-1.2531,-1.2541,-1.2534,-1.2556,-1.2535,-1.2566,-1.2547,-1.2556,-1.2559,-1.256,-1.2563,-1.2539,-1.2578,-1.2642,-1.2649,-1.2565,-1.2564,-1.2563,0,-1.245,-1.2477,-1.2503,-1.2509,-1.2519,-1.2531,-1.2536,-1.2544,-1.2554,-1.2566,-1.2573,-1.2588,-1.2596,-1.2608,-1.2606,-1.259,-1.2638,-1.2616,-1.2639,-1.2639,-1.2651,-1.265,-1.2717,-1.2655,-1.2655,-1.2655,-1.2655,0,-1.2501,-1.2526,-1.2522,-1.2539,-1.2566,-1.256,-1.2587,-1.259,-1.2597,-1.2615,-1.2604,-1.262,-1.2615,-1.2631,-1.2629,-1.2656,-1.266,-1.2661,-1.266,-1.2662,-1.2662,-1.2669,-1.2666,-1.2657,-1.2656,-1.2656,-1.2656,0,-1.2552,-1.255,-1.2579,-1.2585,-1.2587,-1.2607,-1.2613,-1.2629,-1.2629,-1.2651,-1.2655,-1.2656,-1.2675,-1.2673,-1.2694,-1.2692,-1.2726,-1.2721,-1.2723,-1.2722,-1.2745,-1.2744,-1.282,-1.283,-1.276,-1.2761,-1.2762,0,-1.2585,-1.2604,-1.2612,-1.2623,-1.2628,-1.2645,-1.2655,-1.265,-1.2662,-1.2674,-1.2688,-1.2706,-1.272,-1.275,-1.2752,-1.2768,-1.2765,-1.279,-1.2767,-1.2769,-1.2766,-1.2765,-1.2767,-1.2795,-1.2796,-1.2796,-1.2797,0,-1.2644,-1.2643,-1.2658,-1.2673,-1.2685,-1.2696,-1.2707,-1.2716,-1.2712,-1.2725,-1.2744,-1.2755,-1.2776,-1.2794,-1.2809,-1.2814,-1.2805,-1.2804,-1.281,-1.2813,-1.2814,-1.2815,-1.2736,-1.2802,-1.2802,-1.2801,-1.2801,-1.2801,-1.2688,-1.2704,-1.2712,-1.273,-1.2737,-1.2747,-1.2762,-1.2764,-1.278,-1.2797,-1.2793,-1.2814,-1.2823,-1.2843,-1.2849,-1.2866,-1.2857,-1.2866,-1.2868,-1.2871,-1.2874,-1.281,-1.2869,-1.2868,-1.2868,-1.2868,-1.2868,0,-1.2747,-1.2752,-1.2768,-1.2783,-1.2796,-1.2786,-1.2797,-1.2809,-1.2828,-1.2837,-1.2851,-1.2873,-1.289,-1.2894,-1.2911,-1.2924,-1.292,-1.2928,-1.2928,-1.2929,-1.2881,-1.2874,-1.2931,-1.2931,-1.2931,-1.2931,-1.2931,-1.2931,-1.278,-1.2807,-1.2806,-1.2837,-1.2841,-1.2862,-1.2869,-1.2879,-1.2886,-1.2911,-1.2925,-1.2927,-1.2934,-1.2951,-1.2967,-1.2968,-1.2975,-1.2985,-1.2984,-1.2939,-1.2933,-1.2927,-1.292,-1.2986,-1.2986,-1.3031,-1.3032,-1.3032]},{"header":{"parameterUnit":"m.s-1","parameterCategory":1,"la1":30.2991,"la2":30.254,"lo1":-89.0895,"lo2":-89.0444,"dy":0.0017,"dx":0.0017,"nx":28,"ny":28,"refTime":"2024-08-20T21:00:00:Z","depth":0,"parameterNumber":3,"parameterNumberName":"V-component_of_WINDS"},"data":[0,0,0,0,0,0,0,0,0,0,0,0,0,0,0,0,0,0,0,0,0,0,0,0,0,0,0,0,0,0,0,0,0,0,0,0,0,0,0,0,0,0,0,0,0,0,0,0,0,0,0,0,0,0,0,0,0,0,-1.0943,-1.0943,0,-1.0977,-1.0978,-1.0978,-1.0981,-1.098,-1.098,-1.098,-1.1017,-1.1018,-1.1019,0,0,0,0,0,0,0,0,0,0,0,0,0,-1.0882,-1.0883,-1.0943,-1.0943,-1.0943,-1.0977,-1.0978,-1.0978,-1.0981,-1.098,-1.098,-1.0979,-1.1016,-1.1018,-1.1019,0,0,0,0,0,0,0,0,0,0,0,0,0,-1.0912,-1.0884,-1.0943,-1.0949,-1.095,-1.0977,-1.0978,-1.0978,-1.0981,-1.098,-1.098,-1.0979,-1.1016,-1.1018,-1.102,-1.1043,0,0,-1.1026,-1.1027,0,0,0,0,0,0,0,0,-1.091,-1.0914,-1.0948,-1.0948,-1.095,-1.0974,-1.097,-1.1,-1.0981,-1.0969,-1.098,-1.0979,-1.1003,-1.1006,-1.1014,-1.1045,-1.1047,-1.1026,-1.1027,-1.1028,-1.1029,0,0,0,0,0,0,0,-1.0908,-1.0913,-1.0956,-1.0948,-1.0949,-1.0951,-1.0955,-1.0976,-1.0989,-1.097,-1.097,-1.0974,-1.1003,-1.1012,-1.1015,-1.1047,-1.1026,-1.1028,-1.1029,-1.103,-1.1103,-1.1104,0,0,0,0,0,0,-1.0905,-1.0911,-1.0955,-1.0957,-1.0928,-1.0953,-1.0957,-1.0967,-1.0989,-1.0991,-1.0975,-1.0974,-1.1009,-1.1012,-1.1016,-1.1048,-1.1028,-1.103,-1.1031,-1.1103,-1.1103,-1.1104,0,0,0,0,0,0,-1.0903,-1.0908,-1.0954,-1.0934,-1.094,-1.0954,-1.0966,-1.0968,-1.0976,-1.0992,-1.0995,-1.0981,-1.1008,-1.1013,-1.1037,-1.1049,-1.1031,-1.1033,-1.1102,-1.1103,-1.1104,-1.1109,0,0,0,0,0,0,-1.0901,-1.0908,-1.0916,-1.0934,-1.0941,-1.0973,-1.0966,-1.0969,-1.0979,-1.0979,-1.0998,-1.1001,-1.1008,-1.1034,-1.1039,-1.1051,-1.1034,-1.1101,-1.1102,-1.1104,-1.1108,-1.1111,-1.1113,0,0,0,0,0,-1.0899,-1.0916,-1.0916,-1.0922,-1.0952,-1.0974,-1.0978,-1.0985,-1.098,-1.0989,-1.1,-1.1001,-1.1047,-1.1037,-1.1042,-1.1055,-1.11,-1.1102,-1.1103,-1.1107,-1.111,-1.1112,0,0,0,0,0,0,-1.0898,-1.0918,-1.0919,-1.0942,-1.0956,-1.0974,-1.0986,-1.0988,-1.1004,-1.1003,-1.1012,-1.1017,-1.1041,-1.105,-1.1039,-1.1081,-1.1073,-1.1076,-1.1074,-1.1077,-1.1079,-1.1077,-1.1036,0,0,0,0,0,-1.0901,-1.0916,-1.0933,-1.0952,-1.0959,-1.0971,-1.0981,-1.0986,-1.1001,-1.1008,-1.102,-1.1036,-1.1054,-1.1066,-1.1083,-1.111,-1.1115,-1.1121,-1.1124,-1.1125,-1.1128,-1.1146,-1.115,-1.111,-1.111,-1.111,0,0,-1.0906,-1.0919,-1.0928,-1.0952,-1.0964,-1.0981,-1.0976,-1.0994,-1.1008,-1.101,-1.1034,-1.1044,-1.1063,-1.1089,-1.1101,-1.1097,-1.114,-1.1127,-1.1129,-1.1131,-1.1148,-1.1152,-1.1155,-1.1111,-1.1111,-1.1111,0,0,-1.0924,-1.0935,-1.0953,-1.0965,-1.0983,-1.0992,-1.0996,-1.1014,-1.1021,-1.1045,-1.1049,-1.1065,-1.1096,-1.111,-1.1121,-1.1148,-1.115,-1.1153,-1.1165,-1.1182,-1.1185,-1.1188,-1.12,-1.1204,-1.1156,-1.1156,-1.1156,0,-1.0929,-1.0954,-1.0962,-1.0981,-1.0992,-1.0996,-1.1015,-1.1027,-1.105,-1.1058,-1.1054,-1.1095,-1.1107,-1.1138,-1.1145,-1.1152,-1.116,-1.1151,-1.1184,-1.1187,-1.119,-1.1201,-1.1206,-1.1156,-1.1156,-1.1156,-1.1156,0,-1.096,-1.0978,-1.099,-1.1013,-1.1026,-1.1045,-1.1057,-1.1069,-1.1074,-1.1083,-1.111,-1.1125,-1.1147,-1.1154,-1.1158,-1.1187,-1.1184,-1.1182,-1.1174,-1.1194,-1.1205,-1.1209,-1.1157,-1.1157,-1.1157,-1.1156,0,0,-1.0977,-1.1006,-1.101,-1.1022,-1.1044,-1.1058,-1.1079,-1.11,-1.1112,-1.1128,-1.1147,-1.1174,-1.1173,-1.1185,-1.1191,-1.1206,-1.123,-1.1202,-1.1203,-1.1209,-1.1266,-1.1269,-1.1273,-1.1231,-1.1232,-1.1233,-1.1265,0,-1.1,-1.1035,-1.1044,-1.1075,-1.1093,-1.1098,-1.1117,-1.1133,-1.1143,-1.1161,-1.1172,-1.1192,-1.1188,-1.1196,-1.1211,-1.1224,-1.1242,-1.1222,-1.1251,-1.1252,-1.1247,-1.1279,-1.1281,-1.1311,-1.1269,-1.127,-1.127,0,-1.103,-1.1048,-1.1081,-1.1103,-1.1111,-1.1127,-1.1149,-1.1166,-1.1185,-1.1192,-1.1207,-1.1212,-1.1236,-1.1227,-1.1261,-1.1247,-1.126,-1.1268,-1.127,-1.1274,-1.1263,-1.1286,-1.132,-1.1325,-1.1277,-1.1276,-1.1276,0,-1.1042,-1.1074,-1.1099,-1.1109,-1.1134,-1.1146,-1.1157,-1.1176,-1.119,-1.1209,-1.1219,-1.1241,-1.1254,-1.1272,-1.1284,-1.1275,-1.1318,-1.1309,-1.1326,-1.1326,-1.1335,-1.1334,-1.1374,-1.134,-1.134,-1.134,-1.134,0,-1.1066,-1.1087,-1.1105,-1.112,-1.1145,-1.1156,-1.118,-1.1191,-1.1209,-1.1228,-1.1233,-1.1251,-1.1265,-1.1286,-1.1296,-1.1324,-1.1329,-1.1337,-1.1339,-1.1337,-1.1337,-1.1346,-1.1345,-1.1341,-1.1341,-1.1341,-1.1341,0,-1.1084,-1.1096,-1.1124,-1.1147,-1.1153,-1.117,-1.1191,-1.1207,-1.1218,-1.1243,-1.1249,-1.1267,-1.1292,-1.1306,-1.1336,-1.1343,-1.1376,-1.1376,-1.1369,-1.1371,-1.1388,-1.1387,-1.1436,-1.1444,-1.1404,-1.1404,-1.1404,0,-1.1099,-1.1115,-1.114,-1.1154,-1.1165,-1.1186,-1.1201,-1.1213,-1.1228,-1.1253,-1.1267,-1.1293,-1.1314,-1.1354,-1.137,-1.1395,-1.1398,-1.1413,-1.1401,-1.14,-1.1401,-1.14,-1.1403,-1.1416,-1.1416,-1.1416,-1.1416,0,-1.1125,-1.1132,-1.1152,-1.1175,-1.1193,-1.1212,-1.123,-1.1241,-1.1257,-1.1274,-1.13,-1.1316,-1.1349,-1.1376,-1.1402,-1.1415,-1.142,-1.142,-1.1426,-1.1424,-1.1421,-1.1425,-1.1377,-1.1419,-1.1419,-1.1419,-1.1418,-1.1418,-1.1143,-1.1159,-1.118,-1.1204,-1.122,-1.1238,-1.1255,-1.127,-1.1291,-1.1319,-1.1325,-1.1353,-1.1376,-1.1412,-1.1426,-1.145,-1.1447,-1.1454,-1.1457,-1.1459,-1.1461,-1.1416,-1.1454,-1.1454,-1.1454,-1.1454,-1.1454,0,-1.1172,-1.1187,-1.1208,-1.1235,-1.1254,-1.1256,-1.1278,-1.1295,-1.1319,-1.1339,-1.1361,-1.1392,-1.1418,-1.1438,-1.1465,-1.1481,-1.1484,-1.1488,-1.1487,-1.1491,-1.146,-1.1454,-1.1485,-1.1485,-1.1485,-1.1485,-1.1485,-1.1485,-1.1189,-1.1217,-1.1226,-1.1264,-1.1278,-1.1306,-1.1319,-1.1337,-1.1353,-1.1388,-1.141,-1.1423,-1.1444,-1.1474,-1.1499,-1.1504,-1.1515,-1.1519,-1.1525,-1.1496,-1.1493,-1.149,-1.1484,-1.1521,-1.1521,-1.1554,-1.1554,-1.1555]}]]